sat.trackr.live / text

‹ back to catalog

STARLINK-2413

NORAD 47827 · 2021-018AS

PAYLOAD ACTIVE UNKNOWN

§ Identity

Operator
Country
US
Launch date
2021-03-11
Launch site
AFETR
Launch vehicle
Mass (kg)
RCS (m²)

Purposes: comms

External: N2YO · Heavens-Above · Gunter

§ Orbital elements

Epoch: 2026-09-20T03:19:41.761056Z

Period
94.01 min
Inclination
53.1596°
Eccentricity
0.0000901
Mean motion
15.31702910 rev/d
Perigee alt
470.1 km
Apogee alt
471.3 km
Semi-major
6,848.9 km
B*
-7.8864e-6
RAAN
57.6645°
Arg perigee
98.8261°
Mean anomaly
261.2842°
Rev number
30,657

§ Raw data

STARLINK-24131 47827U 21018AS  26263.13867779 -.00000610  00000+0 -78864-5 0  99932 47827  53.1596  57.6645 0000901  98.8261 261.2842 15.31702910306571

JSON: /api/v1/satellites/47827 · /tle

For live sub-satellite position, see the globe view (requires WebGL).

§ Visibility from observer

Set your observer location to see the next 7 days of passes ≥ 10°. The values pass through the URL so the page stays shareable.

No JS? Fill the form by hand. The geolocation button needs JavaScript.